Regional Weather Roundup
Issued by NWS

Home | Current Version | Previous Version | Graphics & Text | Print | Product List | Glossary On
Versions: 1 2 3 4 5 6 7 8 9 10 11 12 13 14 15 16 17 18 19 20 21 22 23 24 25 26 27
000
ASUS45 KCYS 241010
RWRWY

WYOMING REGIONAL WEATHER ROUNDUP
NATIONAL WEATHER SERVICE CHEYENNE WY
300 AM MST TUE JAN 24 2017

NOTE:  "FAIR" INDICATES FEW OR NO CLOUDS BELOW 12,000 FEET
WITH NO SIGNIFICANT WEATHER AND/OR OBSTRUCTIONS TO VISIBILITY.

WYZ001-241100-
YELLOWSTONE NATIONAL PARK

CITY           SKY/WX    TMP DP  RH WIND       PRES   REMARKS
LK YELLOWSTONE   N/A     16  12  84 CALM      29.54R
W YELLOWSTONE  NOT AVBL

$$
WYZ002>013-054>058-071-098>099-241100-
NORTHERN WYOMING

CITY           SKY/WX    TMP DP  RH WIND       PRES   REMARKS
JACKSON        CLOUDY    21  19  93 SW5       29.53R WCI  15
CODY           LGT SNOW  20  15  81 NW15      29.68R WCI   6
GREYBULL       LGT SNOW  22  19  89 NW8       29.66S FOG     WCI  12
WORLAND        LGT SNOW  21  21 100 NW6       29.65R FOG     WCI  13
SHERIDAN       LGT SNOW  21  18  88 VRB6      29.75S FOG     WCI  13
BUFFALO        LGT SNOW  19  14  81 N22G31    29.65F WCI   2
GILLETTE       LGT SNOW  17  15  92 N10       29.68S FOG     WCI   5
HULETT         CLOUDY    16  12  86 MISG      29.71S FOG
NEWCASTLE      LGT SNOW  19  19 100 W7        29.65R WCI  10

$$
WYZ014>020-022>026-101>103-241100-
CENTRAL WYOMING

CITY           SKY/WX    TMP DP  RH WIND       PRES   REMARKS
BIG PINEY      LGT SNOW  19  17  92 E7        29.51R VSB 3/4 WCI  10
PINEDALE       LGT SNOW  19  19 100 CALM      29.50R
DUBOIS         NOT AVBL
LANDER         LGT SNOW  20  18  92 N5        29.58R VSB 1   WCI  13
RIVERTON       LGT SNOW  19  17  92 N17       29.57R FOG     WCI   4
CASPER         CLOUDY    15  12  88 NE17      29.58S WCI  -1
DOUGLAS        LGT SNOW  20  17  88 NE9       29.60S FOG     WCI   9

$$
WYZ021-027>030-104>119-241100-
SOUTHERN WYOMING

CITY           SKY/WX    TMP DP  RH WIND       PRES   REMARKS
EVANSTON       CLOUDY    16  12  84 SW12      29.55R WCI   3
ROCK SPRINGS   CLOUDY    20  17  88 SW17      29.52R FOG     WCI   5
RAWLINS        FAIR      21  15  78 W16       29.49S WCI   7
LARAMIE        FAIR      12  11  95 S5        29.49R WCI   4
CHEYENNE       CLOUDY    29  27  92 CALM      29.50F
TORRINGTON     CLOUDY    24  19  81 N8        29.58S WCI  15

$$




USA.gov is the U.S. government's official web portal to all federal, state and local government web resources and services.